Location: Daerah Kuala Lumpur
(3.1167°N, 101.6833°E)
Time: 07:54:53
(UTC+00:00)

ISS - Visible Passes

Search period start: 09 February 2026 00:00
Search period end: 19 February 2026 00:00
Orbit: 414 x 429 km, 51.6° (Epoch: 8 February)

Date Brightness Start Highest point End Pass type
(mag) Time Alt. Az. Time Alt. Az. Time Alt. Az.
9 Feb -0.5 21:24:20 12° ENE 21:24:20 12° ENE 21:24:43 10° ENE visible
9 Feb -1.7 22:57:29 10° WNW 22:58:45 12° NW 23:00:11 10° NNW visible
10 Feb -1.1 22:14:31 11° N 22:14:31 11° N 22:14:36 10° N visible
